CW6641 Weather Reports


Display with metric or nautical units.
time (UTC)temp
F
wind
direction
speed
MPH
gust
MPH
rain 1hr
in
rain 24hr
in
rain mn
in
humidity
%
barometer
mb
20260904181251 98 0.0 0.0 0.00 0.00 0.00 46 1015.7
20260904180747 97 0.0 0.0 0.00 0.00 0.00 46 1015.8
20260904180243 97 0.0 0.0 0.00 0.00 0.00 46 1016.2
20260904175741 97 0.0 0.0 0.00 0.00 0.00 46 1016.0
20260904175240 97 0.0 0.0 0.00 0.00 0.00 46 1016.1
20260904174735 97 0.0 0.0 0.00 0.00 0.00 45 1016.1
20260904174231 97 0.0 0.0 0.00 0.00 0.00 49 1016.2
20260904173727 96 0.0 0.0 0.00 0.00 0.00 47 1016.3
20260904173226 96 0.0 0.0 0.00 0.00 0.00 46 1016.1
20260904172723 96 0.0 0.0 0.00 0.00 0.00 47 1016.3
20260904172222 96 0.0 0.0 0.00 0.00 0.00 49 1016.5
20260904171717 96 0.0 0.0 0.00 0.00 0.00 50 1016.4
20260904171212 96 0.0 0.0 0.00 0.00 0.00 50 1016.5
20260904170709 95 0.0 0.0 0.00 0.00 0.00 51 1016.5
20260904170204 95 0.0 0.0 0.00 0.00 0.00 53 1016.4
20260904165702 95 0.0 0.0 0.00 0.00 0.00 54 1016.7
20260904165157 94 0.0 0.0 0.00 0.00 0.00 52 1016.7
20260904164652 94 0.0 0.0 0.00 0.00 0.00 54 1016.6
20260904164147 93 0.0 0.0 0.00 0.00 0.00 53 1016.8
20260904163643 94 0.0 0.0 0.00 0.00 0.00 54 1016.9
20260904163138 94 0.0 0.0 0.00 0.00 0.00 53 1016.9
20260904162637 94 0.0 0.0 0.00 0.00 0.00 52 1016.9
20260904162132 93 0.0 0.0 0.00 0.00 0.00 52 1016.9
20260904161627 93 0.0 0.0 0.00 0.00 0.00 54 1016.8
20260904161122 93 0.0 0.0 0.00 0.00 0.00 55 1016.9
20260904160618 93 0.0 0.0 0.00 0.00 0.00 57 1016.9
20260904160113 92 0.0 0.0 0.00 0.00 0.00 55 1016.6
20260904155608 92 0.0 0.0 0.00 0.00 0.00 57 1016.8
20260904155102 92 0.0 0.0 0.00 0.00 0.00 58 1016.7
20260904154556 91 0.0 0.0 0.00 0.00 0.00 58 1016.9
20260904154050 91 0.0 0.0 0.00 0.00 0.00 60 1017.0
20260904153549 91 0.0 0.0 0.00 0.00 0.00 60 1016.7
20260904153041 91 0.0 0.0 0.00 0.00 0.00 60 1016.9
20260904152536 91 0.0 0.0 0.00 0.00 0.00 60 1016.6
20260904152032 90 0.0 0.0 0.00 0.00 0.00 61 1016.9
20260904151526 90 0.0 0.0 0.00 0.00 0.00 60 1016.8
20260904151021 90 0.0 0.0 0.00 0.00 0.00 60 1016.8
20260904150521 89 0.0 0.0 0.00 0.00 0.00 60 1016.8
20260904150015 89 0.0 0.0 0.00 0.00 0.00 64 1016.9
20260904145510 88 0.0 0.0 0.00 0.00 0.00 64 1016.9
20260904145005 88 0.0 0.0 0.00 0.00 0.00 67 1017.0
20260904144501 87 0.0 0.0 0.00 0.00 0.00 69 1016.8
20260904143956 87 0.0 0.0 0.00 0.00 0.00 69 1016.8
20260904143452 87 0.0 0.0 0.00 0.00 0.00 68 1016.7
20260904142949 87 0.0 0.0 0.00 0.00 0.00 68 1016.7
20260904142445 86 0.0 0.0 0.00 0.00 0.00 68 1016.8
20260904141944 86 0.0 0.0 0.00 0.00 0.00 70 1016.8
20260904141440 85 0.0 0.0 0.00 0.00 0.00 70 1016.7
20260904140936 85 0.0 0.0 0.00 0.00 0.00 71 1016.7
20260904140436 84 0.0 0.0 0.00 0.00 0.00 72 1017.0
20260904135935 83 0.0 0.0 0.00 0.00 0.00 75 1016.7
20260904135434 83 0.0 0.0 0.00 0.00 0.00 75 1017.0
20260904134931 82 0.0 0.0 0.00 0.00 0.00 77 1016.7
20260904134431 82 0.0 0.0 0.00 0.00 0.00 77 1016.7
20260904133925 82 0.0 0.0 0.00 0.00 0.00 78 1016.4
20260904133421 81 0.0 0.0 0.00 0.00 0.00 78 1016.7
20260904132916 81 0.0 0.0 0.00 0.00 0.00 78 1016.7
20260904132411 80 0.0 0.0 0.00 0.00 0.00 79 1016.9
20260904131910 80 0.0 0.0 0.00 0.00 0.00 79 1016.8
20260904131406 80 0.0 0.0 0.00 0.00 0.00 79 1016.7
20260904130901 80 0.0 0.0 0.00 0.00 0.00 80 1016.7
20260904130400 79 0.0 0.0 0.00 0.00 0.00 80 1016.5
20260904125855 79 0.0 0.0 0.00 0.00 0.00 80 1016.6
20260904125352 78 0.0 0.0 0.00 0.00 0.00 82 1016.5
20260904124851 78 0.0 0.0 0.00 0.00 0.00 83 1016.7
20260904124348 78 0.0 0.0 0.00 0.00 0.00 84 1016.5
20260904123842 77 0.0 0.0 0.00 0.00 0.00 85 1016.5
20260904123338 77 0.0 0.0 0.00 0.00 0.00 85 1016.3
20260904122833 76 0.0 0.0 0.00 0.00 0.00 85 1016.5
20260904122332 76 0.0 0.0 0.00 0.00 0.00 85 1016.4
20260904121827 76 0.0 0.0 0.00 0.00 0.00 85 1016.4
20260904121324 76 0.0 0.0 0.00 0.00 0.00 85 1016.3
20260904120820 75 0.0 0.0 0.00 0.00 0.00 85 1016.4
20260904120315 75 0.0 0.0 0.00 0.00 0.00 85 1016.4
20260904115810 75 0.0 0.0 0.00 0.00 0.00 85 1016.3
20260904115307 75 0.0 0.0 0.00 0.00 0.00 85 1016.2
20260904114806 75 0.0 0.0 0.00 0.00 0.00 85 1016.1
20260904114300 75 0.0 0.0 0.00 0.00 0.00 85 1016.3
20260904113755 75 0.0 0.0 0.00 0.00 0.00 85 1016.0
20260904113254 75 0.0 0.0 0.00 0.00 0.00 85 1016.1
20260904112749 75 0.0 0.0 0.00 0.00 0.00 85 1016.0
20260904112245 76 0.0 0.0 0.00 0.00 0.00 85 1016.0
20260904111741 76 0.0 0.0 0.00 0.00 0.00 86 1016.0
20260904111236 76 0.0 0.0 0.00 0.00 0.00 86 1015.9
20260904110732 76 0.0 0.0 0.00 0.00 0.00 85 1015.8
20260904110230 75 0.0 0.0 0.00 0.00 0.00 84 1015.8
20260904105720 75 0.0 0.0 0.00 0.00 0.00 83 1015.8
20260904105215 75 0.0 0.0 0.00 0.00 0.00 83 1015.7
20260904104710 76 0.0 0.0 0.00 0.00 0.00 83 1015.5
20260904104206 76 0.0 0.0 0.00 0.00 0.00 83 1015.4
20260904103703 76 0.0 0.0 0.00 0.00 0.00 83 1015.6
20260904103157 76 0.0 0.0 0.00 0.00 0.00 83 1015.5
20260904102653 76 0.0 0.0 0.00 0.00 0.00 83 1015.5
20260904102148 76 0.0 0.0 0.00 0.00 0.00 83 1015.6
20260904101645 76 0.0 0.0 0.00 0.00 0.00 83 1015.5
20260904101140 76 0.0 0.0 0.00 0.00 0.00 83 1015.6
20260904100636 76 0.0 0.0 0.00 0.00 0.00 83 1015.4
20260904100131 76 0.0 0.0 0.00 0.00 0.00 83 1015.5
20260904095626 76 0.0 0.0 0.00 0.00 0.00 83 1015.5
20260904095126 76 0.0 0.0 0.00 0.00 0.00 82 1015.4
20260904094621 76 0.0 0.0 0.00 0.00 0.00 82 1015.6
20260904094116 76 0.0 0.0 0.00 0.00 0.00 82 1015.4
20260904093613 76 0.0 0.0 0.00 0.00 0.00 82 1015.4
20260904093107 76 0.0 0.0 0.00 0.00 0.00 82 1015.4
20260904092603 77 0.0 0.0 0.00 0.00 0.00 82 1015.2
20260904092059 77 0.0 0.0 0.00 0.00 0.00 82 1015.2
20260904091555 77 0.0 0.0 0.00 0.00 0.00 83 1015.0
20260904091054 77 0.0 0.0 0.00 0.00 0.00 83 1015.2
20260904090550 77 0.0 0.0 0.00 0.00 0.00 83 1015.1
20260904090046 77 0.0 0.0 0.00 0.00 0.00 82 1015.2
20260904085546 77 0.0 0.0 0.00 0.00 0.00 82 1015.1
20260904085045 77 0.0 0.0 0.00 0.00 0.00 82 1015.1
20260904084541 77 0.0 0.0 0.00 0.00 0.00 81 1015.1
20260904084037 77 0.0 0.0 0.00 0.00 0.00 81 1015.4
20260904083533 77 0.0 0.0 0.00 0.00 0.00 81 1015.1
20260904083029 77 0.0 0.0 0.00 0.00 0.00 81 1015.1
20260904082524 77 0.0 0.0 0.00 0.00 0.00 81 1015.0
20260904082019 77 0.0 0.0 0.00 0.00 0.00 81 1014.9
20260904081514 77 0.0 0.0 0.00 0.00 0.00 81 1015.0
20260904081010 77 0.0 0.0 0.00 0.00 0.00 81 1015.1
20260904080505 77 0.0 0.0 0.00 0.00 0.00 81 1014.8
20260904080001 78 0.0 0.0 0.00 0.00 0.00 81 1014.9
20260904075457 78 0.0 0.0 0.00 0.00 0.00 81 1014.9
20260904074956 78 0.0 0.0 0.00 0.00 0.00 80 1014.9
20260904074451 78 0.0 0.0 0.00 0.00 0.00 80 1015.0
20260904073946 78 0.0 0.0 0.00 0.00 0.00 80 1015.0
20260904073442 78 0.0 0.0 0.00 0.00 0.00 80 1015.1
20260904072937 78 0.0 0.0 0.00 0.00 0.00 80 1015.1
20260904072433 78 0.0 0.0 0.00 0.00 0.00 80 1015.2
20260904071927 78 0.0 0.0 0.00 0.00 0.00 80 1014.9
20260904071423 78 0.0 0.0 0.00 0.00 0.00 80 1015.1
20260904070918 78 0.0 0.0 0.00 0.00 0.00 80 1015.0
20260904070417 78 0.0 0.0 0.00 0.00 0.00 80 1015.0
20260904065916 78 0.0 0.0 0.00 0.00 0.00 79 1015.0
20260904065413 78 0.0 0.0 0.00 0.00 0.00 79 1015.0
20260904064912 79 0.0 0.0 0.00 0.00 0.00 79 1014.9
20260904064409 79 0.0 0.0 0.00 0.00 0.00 79 1015.2
20260904063904 79 0.0 0.0 0.00 0.00 0.00 79 1014.9
20260904063401 79 0.0 0.0 0.00 0.00 0.00 79 1015.0
20260904062855 79 0.0 0.0 0.00 0.00 0.00 78 1015.0
20260904062351 79 0.0 0.0 0.00 0.00 0.00 78 1015.0
20260904061847 79 0.0 0.0 0.00 0.00 0.00 78 1015.2
20260904061343 79 0.0 0.0 0.00 0.00 0.00 78 1015.1
20260904060839 79 0.0 0.0 0.00 0.00 0.00 78 1015.1
20260904060335 80 0.0 0.0 0.00 0.00 0.00 78 1015.2
20260904055830 80 0.0 0.0 0.00 0.00 0.00 78 1015.4
20260904055325 80 0.0 0.0 0.00 0.00 0.00 78 1015.2
20260904054820 80 0.0 0.0 0.00 0.00 0.00 77 1015.6
20260904054317 80 0.0 0.0 0.00 0.00 0.00 76 1015.4
20260904053812 80 0.0 0.0 0.00 0.00 0.00 76 1015.5
20260904053311 80 0.0 0.0 0.00 0.00 0.00 76 1015.4
20260904052807 80 0.0 0.0 0.00 0.00 0.00 76 1015.2
20260904052306 81 0.0 0.0 0.00 0.00 0.00 76 1015.2
20260904051754 81 0.0 0.0 0.00 0.00 0.00 76 1015.2
20260904051249 81 0.0 0.0 0.00 0.00 0.00 76 1015.5
20260904050744 81 0.0 0.0 0.00 0.00 0.00 76 1015.5
20260904050240 81 0.0 0.0 0.00 0.00 0.00 76 1015.5
20260904045735 81 0.0 0.0 0.00 0.00 0.00 76 1015.4
20260904045230 81 0.0 0.0 0.00 0.00 0.00 76 1015.2
20260904044724 81 0.0 0.0 0.00 0.00 0.00 76 1015.4
20260904044221 81 0.0 0.0 0.00 0.00 0.00 76 1015.2
20260904043717 81 0.0 0.0 0.00 0.00 0.00 75 1015.5
20260904043213 81 0.0 0.0 0.00 0.00 0.00 75 1015.5
20260904042709 81 0.0 0.0 0.00 0.00 0.00 75 1015.2
20260904042205 81 0.0 0.0 0.00 0.00 0.00 75 1015.7
20260904041704 81 0.0 0.0 0.00 0.00 0.00 75 1015.2
20260904041201 81 0.0 0.0 0.00 0.00 0.00 75 1015.4
20260904040656 81 0.0 0.0 0.00 0.00 0.00 75 1015.4
20260904040152 81 0.0 0.0 0.00 0.00 0.00 75 1015.2
20260904035647 81 0.0 0.0 0.00 0.00 0.00 75 1015.5
20260904035143 81 0.0 0.0 0.00 0.00 0.00 75 1015.4
20260904034641 81 0.0 0.0 0.00 0.00 0.00 75 1015.6
20260904034138 81 0.0 0.0 0.00 0.00 0.00 74 1015.4
20260904033633 81 0.0 0.0 0.00 0.00 0.00 74 1015.4
20260904033131 82 0.0 0.0 0.00 0.00 0.00 74 1015.5
20260904032626 82 0.0 0.0 0.00 0.00 0.00 74 1015.6
20260904032125 82 0.0 0.0 0.00 0.00 0.00 73 1015.5
20260904031624 82 0.0 0.0 0.00 0.00 0.00 73 1015.5
20260904031120 82 0.0 0.0 0.00 0.00 0.00 73 1015.6
20260904030616 82 0.0 0.0 0.00 0.00 0.00 73 1015.6
20260904030111 82 0.0 0.0 0.00 0.00 0.00 73 1015.7
20260904025607 82 0.0 0.0 0.00 0.00 0.00 73 1015.7
20260904025102 82 0.0 0.0 0.00 0.00 0.00 72 1015.6
20260904024557 83 0.0 0.0 0.00 0.00 0.00 71 1015.6
20260904024053 83 0.0 0.0 0.00 0.00 0.00 71 1015.7
20260904023549 83 0.0 0.0 0.00 0.00 0.00 71 1015.5
20260904023044 84 0.0 0.0 0.00 0.00 0.00 70 1015.5
20260904022539 84 0.0 0.0 0.00 0.00 0.00 70 1015.5
20260904022036 84 0.0 0.0 0.00 0.00 0.00 69 1015.5
20260904021531 84 0.0 0.0 0.00 0.00 0.00 68 1015.1
20260904021027 84 0.0 0.0 0.00 0.00 0.00 68 1015.1
20260904020526 85 0.0 0.0 0.00 0.00 0.00 67 1015.0
20260904020021 85 0.0 0.0 0.00 0.00 0.00 66 1015.1
20260904015516 85 0.0 0.0 0.00 0.00 0.00 66 1015.0
20260904015015 85 0.0 0.0 0.00 0.00 0.00 65 1015.1
20260904014509 86 0.0 0.0 0.00 0.00 0.00 65 1015.1
20260904014005 86 0.0 0.0 0.00 0.00 0.00 64 1015.1
20260904013501 86 0.0 0.0 0.00 0.00 0.00 64 1014.9
20260904012957 86 0.0 0.0 0.00 0.00 0.00 63 1014.9
20260904012456 87 0.0 0.0 0.00 0.00 0.00 63 1014.7
20260904011951 87 0.0 0.0 0.00 0.00 0.00 63 1014.7
20260904011445 87 0.0 0.0 0.00 0.00 0.00 62 1014.7
20260904010941 87 0.0 0.0 0.00 0.00 0.00 62 1015.1
20260904010437 88 0.0 0.0 0.00 0.00 0.00 61 1014.7
20260904005932 88 0.0 0.0 0.00 0.00 0.00 61 1014.5
20260904005428 88 0.0 0.0 0.00 0.00 0.00 61 1014.7
20260904004922 89 0.0 0.0 0.00 0.00 0.00 60 1014.6
20260904004419 89 0.0 0.0 0.00 0.00 0.00 60 1014.4
20260904003919 89 0.0 0.0 0.00 0.00 0.00 60 1014.5
20260904003415 89 0.0 0.0 0.00 0.00 0.00 58 1014.5
20260904002910 89 0.0 0.0 0.00 0.00 0.00 59 1014.3
20260904002407 90 0.0 0.0 0.00 0.00 0.00 59 1014.4
20260904001904 91 0.0 0.0 0.00 0.00 0.00 59 1014.4
20260904001401 91 0.0 0.0 0.00 0.00 0.00 58 1014.3
20260904000855 92 0.0 0.0 0.00 0.00 0.00 56 1014.4
20260904000355 93 0.0 0.0 0.00 0.00 0.00 55 1014.3
20260903235855 93 0.0 0.0 0.00 0.00 0.00 54 1014.2
20260903235351 93 0.0 0.0 0.00 0.00 0.00 54 1014.2
20260903234850 94 0.0 0.0 0.00 0.00 0.00 53 1014.0
20260903234346 94 0.0 0.0 0.00 0.00 0.00 51 1014.0
20260903233842 94 0.0 0.0 0.00 0.00 0.00 50 1013.9
20260903233338 95 0.0 0.0 0.00 0.00 0.00 49 1014.2
20260903232837 95 0.0 0.0 0.00 0.00 0.00 47 1014.2
20260903232333 95 0.0 0.0 0.00 0.00 0.00 46 1014.1
20260903231832 95 0.0 0.0 0.00 0.00 0.00 45 1014.1
20260903231327 96 0.0 0.0 0.00 0.00 0.00 47 1013.9
20260903230823 96 0.0 0.0 0.00 0.00 0.00 45 1014.0
20260903230318 96 0.0 0.0 0.00 0.00 0.00 44 1013.8
20260903225814 96 0.0 0.0 0.00 0.00 0.00 43 1013.8
20260903225310 96 0.0 0.0 0.00 0.00 0.00 43 1013.8
20260903224807 96 0.0 0.0 0.00 0.00 0.00 42 1013.9
20260903224302 96 0.0 0.0 0.00 0.00 0.00 43 1014.0
20260903223758 96 0.0 0.0 0.00 0.00 0.00 43 1013.9
20260903223256 96 0.0 0.0 0.00 0.00 0.00 42 1014.1
20260903222751 96 0.0 0.0 0.00 0.00 0.00 44 1014.0
20260903222250 96 0.0 0.0 0.00 0.00 0.00 44 1014.0
20260903221745 97 0.0 0.0 0.00 0.00 0.00 43 1013.9
20260903221243 97 0.0 0.0 0.00 0.00 0.00 42 1014.0
20260903220742 97 0.0 0.0 0.00 0.00 0.00 43 1014.0
20260903220237 97 0.0 0.0 0.00 0.00 0.00 43 1014.1
20260903215730 97 0.0 0.0 0.00 0.00 0.00 42 1014.2
20260903215226 97 0.0 0.0 0.00 0.00 0.00 43 1014.4
20260903214724 97 0.0 0.0 0.00 0.00 0.00 42 1014.3
20260903214221 97 0.0 0.0 0.00 0.00 0.00 42 1014.0
20260903213714 97 0.0 0.0 0.00 0.00 0.00 42 1014.1
20260903213210 97 0.0 0.0 0.00 0.00 0.00 41 1014.4
20260903212706 97 0.0 0.0 0.00 0.00 0.00 42 1014.5
20260903212202 96 0.0 0.0 0.00 0.00 0.00 43 1014.5
20260903211655 96 0.0 0.0 0.00 0.00 0.00 45 1014.4
20260903211153 96 0.0 0.0 0.00 0.00 0.00 43 1014.5
20260903210648 97 0.0 0.0 0.00 0.00 0.00 46 1014.5
20260903210144 97 0.0 0.0 0.00 0.00 0.00 44 1014.7
20260903205643 97 0.0 0.0 0.00 0.00 0.00 43 1014.6
20260903205142 97 0.0 0.0 0.00 0.00 0.00 42 1014.6
20260903204638 98 0.0 0.0 0.00 0.00 0.00 42 1014.6
20260903204134 98 0.0 0.0 0.00 0.00 0.00 43 1015.0
20260903203629 98 0.0 0.0 0.00 0.00 0.00 42 1014.7
20260903203124 98 0.0 0.0 0.00 0.00 0.00 41 1014.7
20260903202619 98 0.0 0.0 0.00 0.00 0.00 41 1015.0
20260903202114 98 0.0 0.0 0.00 0.00 0.00 43 1015.1
20260903201609 98 0.0 0.0 0.00 0.00 0.00 43 1015.1
20260903201108 98 0.0 0.0 0.00 0.00 0.00 42 1015.1
20260903200603 98 0.0 0.0 0.00 0.00 0.00 43 1014.9
20260903200058 98 0.0 0.0 0.00 0.00 0.00 42 1015.2
20260903195549 98 0.0 0.0 0.00 0.00 0.00 42 1015.4
20260903195044 99 0.0 0.0 0.00 0.00 0.00 41 1015.1
20260903194539 99 0.0 0.0 0.00 0.00 0.00 43 1015.5
20260903194034 98 0.0 0.0 0.00 0.00 0.00 43 1015.2
20260903193530 98 0.0 0.0 0.00 0.00 0.00 44 1015.4
20260903193025 98 0.0 0.0 0.00 0.00 0.00 43 1015.4
20260903192517 98 0.0 0.0 0.00 0.00 0.00 43 1015.6
20260903192017 98 0.0 0.0 0.00 0.00 0.00 43 1015.5
20260903191513 97 0.0 0.0 0.00 0.00 0.00 44 1015.5
20260903191013 97 0.0 0.0 0.00 0.00 0.00 43 1015.5
20260903190507 97 0.0 0.0 0.00 0.00 0.00 45 1015.6
20260903190001 96 0.0 0.0 0.00 0.00 0.00 45 1015.6
20260903185457 96 0.0 0.0 0.00 0.00 0.00 46 1015.7
20260903184956 95 0.0 0.0 0.00 0.00 0.00 47 1015.8
20260903184453 95 0.0 0.0 0.00 0.00 0.00 47 1016.0
20260903183948 95 0.0 0.0 0.00 0.00 0.00 45 1015.8
20260903183442 95 0.0 0.0 0.00 0.00 0.00 47 1016.1
20260903182942 96 0.0 0.0 0.00 0.00 0.00 45 1015.8
20260903182440 96 0.0 0.0 0.00 0.00 0.00 46 1015.9
20260903181936 96 0.0 0.0 0.00 0.00 0.00 46 1015.9